Weather History for Vancouver International Air-Port, B. C., British Columbia

Change the Weather History Date:

Wednesday, December 5, 2012

  Actual Average Record
Temperature  
Mean Temperature 43 °F -  
Max Temperature 45 °F 43 °F - ()
Min Temperature 41 °F 33 °F - ()
Degree Days  
Heating Degree Days 22    
Moisture  
Dew Point 36 °F    
Average Humidity 74    
Maximum Humidity 87    
Minimum Humidity 59    
Precipitation  
Precipitation 0.04 in 0.23 in - ()
Sea Level Pressure  
Sea Level Pressure 30.06 in    
Wind  
Wind Speed 11 mph ()    
Max Wind Speed 17 mph    
Max Gust Speed 25 mph    
Visibility 14.8 miles    
Events Rain    
T = Trace of Precipitation, MM = Missing Value Source: Averaged Metar Reports

Daily Weather History Graph

Daily Weather History Graph

Search for Another Location

Airport:

Trip Planner

Search our weather history database for the weather conditions in past years. The results will help you decide how hot, cold, wet, or windy it might be!

Date:

Astronomy

Dec. 05, 2012 Rise Set
Actual Time 7:51 AM PST 4:15 PM PST
Civil Twilight 7:14 AM PST 4:52 PM PST
Nautical Twilight 6:34 AM PST 5:32 PM PST
Astronomical Twilight 5:55 AM PST 6:11 PM PST
Moon 11:38 PM PST (12/5) 11:52 AM PST (12/5)
Length of Visible Light 9h 37m
Length of Day
8h 23m
Waning Gibbous, 58% of the Moon is Illuminated
Dec 5
Waning Gibbous
Dec 6
Last Quarter
Dec 13
New
Dec 19
First Quarter
Dec 28
Full

Hourly Weather History & Observations

Time (PST) Temp. Windchill Dew Point Humidity Pressure Visibility Wind Dir Wind Speed Gust Speed Precip Events Conditions
12:00 AM 44.6 °F 37.2 °F 35.6 °F 71% 29.76 in 15.0 mi SW 17.3 mph 25.3 mph N/A   Mostly Cloudy
1:00 AM 42.8 °F 35.4 °F 35.6 °F 76% 29.78 in 15.0 mi SW 15.0 mph 21.9 mph N/A   Scattered Clouds
2:00 AM 42.8 °F 38.6 °F 33.8 °F 70% 29.83 in 15.0 mi South 6.9 mph - N/A   Partly Cloudy
3:00 AM 42.8 °F 35.8 °F 35.6 °F 76% 29.88 in 15.0 mi SW 13.8 mph - N/A   Scattered Clouds
4:00 AM 42 °F - 35 °F 66% 29.92 in 15 mi SW 16.1 mph - -   Partly Cloudy
4:00 AM 42.8 °F 34.8 °F 33.8 °F 70% 29.92 in 15.0 mi SSW 17.3 mph - N/A   Mostly Cloudy
5:00 AM 41.0 °F 34.7 °F 33.8 °F 76% 29.95 in 15.0 mi SSW 10.4 mph - N/A   Partly Cloudy
7:00 AM 42.8 °F 35.1 °F 35.6 °F 76% 30.03 in 15.0 mi SW 16.1 mph - N/A   Partly Cloudy
8:00 AM 42.8 °F 35.4 °F 33.8 °F 70% 30.05 in 20.0 mi SSW 15.0 mph - N/A   Scattered Clouds
9:00 AM 42.8 °F 37.0 °F 35.6 °F 76% 30.08 in 20.0 mi SSW 10.4 mph - N/A   Mostly Cloudy
10:00 AM 44 °F - 35 °F 59% 30.12 in 19 mi South 11.5 mph - -   Scattered Clouds
10:00 AM 44.6 °F 38.8 °F 33.8 °F 66% 30.12 in 20.0 mi South 11.5 mph - N/A   Mostly Cloudy
11:00 AM 44.6 °F 38.8 °F 35.6 °F 71% 30.14 in 15.0 mi South 11.5 mph - N/A   Overcast
12:00 PM 44.6 °F 39.7 °F 35.6 °F 71% 30.14 in 15.0 mi South 9.2 mph - N/A   Overcast
1:00 PM 44.6 °F 39.2 °F 35.6 °F 71% 30.14 in 15.0 mi South 10.4 mph - N/A   Overcast
1:22 PM 44.6 °F 39.2 °F - N/A% - 15.0 mi SSE 10.4 mph - N/A Rain Light Rain
2:00 PM 44.6 °F 39.2 °F 37.4 °F 76% 30.13 in 15.0 mi South 10.4 mph - N/A Rain Light Rain
3:00 PM 44.6 °F 39.7 °F 37.4 °F 76% 30.14 in 15.0 mi South 9.2 mph - N/A Rain Light Rain
4:00 PM 44 °F - 37 °F 69% 30.14 in 15 mi SSE 9.2 mph - - Rain Light Rain
4:00 PM 44.6 °F 38.8 °F 37.4 °F 76% 30.14 in 15.0 mi SSE 11.5 mph - N/A   Overcast
5:00 PM 44.6 °F 42.2 °F 37.4 °F 76% 30.15 in 15.0 mi SE 4.6 mph - N/A   Overcast
5:06 PM 44.6 °F 42.2 °F - N/A% - 15.0 mi SE 4.6 mph - N/A Rain Light Rain
6:00 PM 44.6 °F 41.4 °F 37.4 °F 76% 30.14 in 15.0 mi SSE 5.8 mph - N/A Rain Light Rain
6:37 PM 44.6 °F 39.7 °F - N/A% - 12.0 mi South 9.2 mph - N/A   Overcast
7:00 PM 44.6 °F 39.7 °F 39.2 °F 81% 30.14 in 12.0 mi South 9.2 mph - N/A   Overcast
8:00 PM 44.6 °F 39.7 °F 37.4 °F 76% 30.14 in 12.0 mi South 9.2 mph - N/A   Overcast
9:00 PM 44.6 °F 39.2 °F 39.2 °F 81% 30.14 in 12.0 mi South 10.4 mph - N/A   Overcast
9:12 PM 44.6 °F 39.7 °F - N/A% - 12.0 mi South 9.2 mph - N/A   Light Drizzle
10:00 PM 44 °F - 39 °F 77% 30.14 in 12 mi SSE 8.1 mph - - Rain Light Drizzle
10:00 PM 44.6 °F 40.7 °F 39.2 °F 81% 30.14 in 12.0 mi SSE 6.9 mph - N/A   Light Drizzle
11:00 PM 42.8 °F 37.5 °F 39.2 °F 87% 30.14 in 12.0 mi SSE 9.2 mph - N/A Rain Light Rain